Погода в Жезказгане

Погода в Жезказгане : погода сейчас, прогноз погоды и архив. Всё, что Вы хотите узнать о погоде в Жезказгане!

Хотите узнать прогноз погоды в Жезказгане? Тогда Вам сюда: Погода в Жезказгане

Поиск расширенной информации на нашем сайте:

Другие новости

Новости СМИ2

Главная страница сайта

Новости сайта

03.07.2017

Напоминаем, что на нашем специализированном сайте Метеоцентр.Азия вы можете получить высокодетализированные автоматические прогнозы погоды по пунктам России, СНГ и мира в авиационном формате (включающие направление и скорость ветра, видимость, явления погоды, количество и форму облачности, нижнюю и верхнюю границу облачности).

Рекомендуем: Джинтропин цена подробнее.

Погода в Жезказгане - сегодня

Время (UTC), дата Ветер
(°,м/с) 
Видим.   Явления Облачность Т
(°С)
Тd
(°С)
f(%) Тe
(°С)
Pmin
(гПа)
dP
(гПа)
Po
(мм)
O2
(г/м3)
Тmin Tmax R s Состояние
почвы
18 17.11.17 190 (Ю) 20000 м    5/0 средняя 
[Ac lent]
-2.2 -5 81 -2  1024.4  -1  736  299    +5.2       
21 17.11.17 200 (Ю) 20000 м    5/0 средняя 
[Ac lent]
-0.8 -3.9 79 1022.1  -2  734  297           
00 18.11.17 190 (Ю) 20000 м    8/0 средняя 
[Ac lent]
+0.5 -3.7 73 1020.2  -1.6  733  295           
03 18.11.17 190 (Ю) 4000 м  слаб. дождь  10/10 600 м 
[Sc]
+0.7 -1.9 83 -1  1018.7  -1.4  732  294           
06 18.11.17 220 (ЮЗ) 1000 м  снег{дождь}  10/10 300 м 
[Ns]
+0.4 -0.7 92 +1  1019  0.2  732  295  -2.3    0.3     
09 18.11.17 310 (СЗ) 4000 м  слаб. снег  10/10 300 м 
[Ns]
-0.8 -2.6 88 -4  1020.9  1.7  733  297           
12 18.11.17 350 (С) 20000 м  {снег}  10/10 600 м 
[Sc]
-1.1 -4 81 -5  1025.1  3.9  736  298           
15 18.11.17 320 (СЗ) 20000 м    10/10 600 м 
[Sc]
-0.7 -3.8 79 -4  1028.5  3.3  739  299    +0.7       
18 18.11.17 310 (СЗ) 20000 м    8/8 600 м 
[Sc]
-0.9 -3.4 83 -3  1031.4  2.8  741  300    +0.7     
21 18.11.17 300 (СЗ) 20000 м  дымка  9/9 600 м 
[Sc]
-4.2 -5.8 89 -5  1034.5  2.5  743  305           
00 19.11.17 260 (З) 4000 м  дымка  8/8 600 м 
[Sc]
-2.6 -4.5 87 -5  1036.3  1.9  744  303           
03 19.11.17 270 (З) 20000 м    4/4 600 м 
[Sc]
-7.2 -9.3 85 -9  1038.7  1.6  745  309  -7.4      равномерный
сухой снег
100% 
06 19.11.17 160 (Ю) 20000 м    6/0 верхняя 
[Ci fib]
-3.7 -7 78 -5  1039.7  1.5  747  306  -7.4         
09 19.11.17 240 (ЮЗ) 20000 м    8/0 средняя, верхняя 
[Ac lent|Ci fib]
+0.1 -4.3 72 -2  1039.3  0.2  747  301           
12 19.11.17 320 (СЗ) 20000 м    10/0 средняя 
[Ac lent]
-0.8 -3.6 81 -2  1039.6  0.2  747  302           
15 19.11.17 210 (ЮЗ) 20000 м    8/0 средняя 
[Ac lent]
-2.7 -5 84 -4  1040.3  0.3  747  305    +0.3       
18 19.11.17 тихо ()   0500 м  туман  ?/?  
-9.1 -10.2 92 -9  1041.1  -0.2  747  312    +0.3       
21 19.11.17 130 (ЮВ) 0500 м  туман  ?/?  
-9.5 -10.7 91 -9  1041.1  -0.1  747  313           
00 20.11.17 130 (ЮВ) 0500 м  туман  ?/?  
-11.3 -12.5 91 -11  1041.3  -0.1  747  315           
03 20.11.17 тихо ()   0500 м  переохл. туман  8/0 верхняя 
[Ci fib]
-13.5 -14.8 90 -14  1041.5  -0.2  747  318        равномерный
сухой снег
100% 
06 20.11.17 120 (ЮВ) 20000 м  {туман}  8/0 верхняя 
[Ci fib]
-6.8 -9.2 83 -8  1040.8  0.4  747  310  -13.6         
09 20.11.17 130 (ЮВ) 20000 м    9/0 верхняя 
[Ci fib]
-1.7 -6.2 71 -3  1038.5  -1.3  746  303           
12 20.11.17 090 (В) 20000 м    9/0 средняя, верхняя 
[Ac lent|Ci fib]
-2.6 -6.7 73 -5  1038.1  -0.5  746  304           
15 20.11.17 100 (В) 20000 м    9/0 средняя, верхняя 
[Ac lent|Ci fib]
-5 -8.2 78 -7  1038.2  -0.4  745  307    -0.4       
18 20.11.17 090 (В) 20000 м    8/0 средняя, верхняя 
[Ac lent|Ci fib]
-6 -9.1 79 -9  1037.5  -0.8  745  308    -0.4       
Время (UTC), дата Ветер
(°,м/с) 
Видим.   Явления Облачность Т
(°С)
Тd
(°С)
f(%) Тe
(°С)
Pmin
(гПа)
dP
(гПа)
Po
(мм)
O2
(г/м3)
Тmin Tmax R s Состояние
почвы

Для получения пояснительной информации подведите курсор к названию столбца.

ПОГОДА в Жезказгане - архив

Всё, что Вы хотите узнать о погоде в Жезказгане - удобно и подробно!

Выберите нужную дату (начиная с 1 января 2015* года) и нажмите кнопку "Найти".
Будут отображены архивные сводки погоды по пункту Жезказган, начиная с указанной даты.


Отображать данные в формате CSV (для использования в таблицах Excel)


Внимание! Наш архив погоды предназначен исключительно для личного некоммерческого использования в познавательных целях. Если Вам необходимы официальные справки о состоянии погоды (для производственных, юридических, коммерческих и т.п. целей), обращайтесь в органы Росгидромета.

*Примечание: данная дата относится к архиву по метеостанциям СССР (Россия, СНГ, Балтия).
Архив по метеостанциям Зарубежной Европы и Азии (кроме Китая) хранится 10 дней, по другим регионам земного шара (Китай, Африка, Америка, Австралия, Океания) - 1 день.

Жезказган - район местоположения метеостанции


Название, широта, долгота, высота метеостанции:
Жезказган 47.8°ш. 67.7°д. 346 м над ур. моря [Казахстан]

Дополнительная информация

В oтличие oт бoльшинства пoгoдных сайтoв мы публикуем пoдрoбную метеoинфoрмацию в детальнoм прoфессиoнальнoм фoрмате.

Характеристики температуры и влажнoсти вoздуха измеряются на высoте 2 м в тени вдали oт зданий и деревьев.
Скoрoсть ветра измеряется на высoте 10 м (на урoвне рoста челoвека скoрoсть ветра ниже в 1.5-2 раза). Если метеoстанция нахoдится в гoрoде или в лесу, тo скoрoсть ветра занижена на 2-4 м/с пo сравнению с oткрытым местoм. Скoрoсть ветра над акватoриями крупных рек и oзёр, а также на вершинах хoлмoв на 2-5 м/с выше, чем в oбычных услoвиях.
Атмoсфернoе давление в разных тoчках местнoсти мoжет значительнo oтличаться oт давления на метеoстанции, в зависимoсти oт услoвий рельефа (при пoдъёме на 10 м давление пoнижается примернo на 1 мм рт.ст.).